DW9945 Weather Reports


Display with metric or nautical units.
time (UTC)temp
F
wind
direction
speed
MPH
gust
MPH
rain 1hr
in
rain 24hr
in
rain mn
in
humidity
%
barometer
mb
20260508153007 62 196 8.0 14.0 0.00 0.20 0.14 57 1010.8
20260508152507 62 216 9.0 15.0 0.00 0.20 0.14 58 1010.9
20260508152007 62 201 10.0 14.0 0.00 0.20 0.14 60 1010.8
20260508151507 62 197 7.0 12.0 0.00 0.21 0.14 61 1010.9
20260508151007 62 200 6.0 10.0 0.00 0.21 0.14 61 1010.9
20260508150507 61 212 6.0 10.0 0.00 0.21 0.14 62 1011.0
20260508145506 61 212 3.0 12.0 0.00 0.21 0.14 63 1011.0
20260508145006 61 180 5.0 10.0 0.00 0.21 0.14 62 1011.2
20260508144506 61 228 6.0 14.0 0.00 0.21 0.14 62 1011.2
20260508144006 61 168 5.0 12.0 0.00 0.21 0.14 63 1011.2
20260508143506 61 200 6.0 12.0 0.00 0.22 0.14 62 1011.3
20260508142507 61 200 4.0 9.0 0.00 0.24 0.14 63 1011.4
20260508142007 60 207 6.0 10.0 0.00 0.24 0.14 65 1011.3
20260508141507 60 157 3.0 9.0 0.00 0.24 0.14 66 1011.4
20260508141007 60 131 3.0 7.0 0.00 0.24 0.14 66 1011.4
20260508140007 60 207 3.0 7.0 0.00 0.24 0.14 68 1011.7
20260508135506 59 197 3.0 10.0 0.00 0.25 0.14 67 1011.8
20260508134506 59 107 5.0 8.0 0.01 0.27 0.14 69 1011.8
20260508134006 59 120 1.0 5.0 0.02 0.33 0.14 73 1011.7
20260508133506 58 273 1.0 3.0 0.04 0.35 0.14 73 1011.8
20260508133006 57 124 0.0 3.0 0.09 0.38 0.14 73 1011.8
20260508132506 57 178 2.0 5.0 0.09 0.39 0.14 75 1011.8
20260508131507 56 246 3.0 6.0 0.09 0.40 0.14 81 1011.8
20260508130507 55 315 6.0 10.0 0.09 0.40 0.14 80 1011.9
20260508130007 55 318 8.0 12.0 0.09 0.40 0.14 83 1011.9
20260508124506 53 325 9.0 12.0 0.09 0.39 0.13 84 1011.9
20260508124006 54 318 5.0 6.0 0.08 0.39 0.13 83 1012.3
20260508123506 54 322 0.0 1.0 0.06 0.36 0.10 83 1012.8
20260508123007 54 330 2.0 5.0 0.00 0.31 0.05 83 1012.8
20260508122507 54 340 6.0 8.0 0.00 0.31 0.05 81 1012.5
20260508122006 54 327 7.0 9.0 0.00 0.31 0.05 80 1012.7
20260508121506 54 340 7.0 12.0 0.00 0.31 0.05 81 1012.5
20260508120506 54 328 6.0 9.0 0.00 0.31 0.05 84 1012.6
20260508120007 54 333 6.0 8.0 0.01 0.31 0.05 81 1012.6
20260508115506 54 324 5.0 6.0 0.02 0.31 0.05 80 1012.5
20260508115006 54 318 5.0 8.0 0.02 0.31 0.05 83 1012.6
20260508114507 53 332 4.0 8.0 0.02 0.31 0.05 81 1012.7
20260508114006 53 327 5.0 8.0 0.04 0.31 0.05 82 1012.8
20260508113006 53 342 4.0 6.0 0.05 0.31 0.05 85 1012.6
20260508112507 52 330 5.0 7.0 0.05 0.31 0.05 87 1012.7
20260508111006 52 310 5.0 8.0 0.05 0.31 0.05 86 1013.2
20260508110507 52 301 5.0 8.0 0.05 0.31 0.05 88 1013.2
20260508110007 52 283 6.0 9.0 0.04 0.30 0.04 86 1013.2
20260508105506 52 281 6.0 12.0 0.03 0.29 0.03 86 1013.3
20260508105006 53 282 5.0 9.0 0.02 0.28 0.02 85 1013.1
20260508104506 53 308 7.0 9.0 0.02 0.28 0.02 83 1013.1
20260508104006 54 268 5.0 9.0 0.01 0.27 0.01 81 1013.2
20260508103506 55 237 4.0 7.0 0.00 0.26 0.00 78 1013.1
20260508103011 55 239 3.0 5.0 0.00 0.26 0.00 78 1013.1
20260508102507 55 206 4.0 6.0 0.00 0.26 0.00 76 1013.0
20260508102008 56 182 3.0 6.0 0.00 0.26 0.00 74 1012.9
20260508101508 56 192 2.0 5.0 0.00 0.26 0.00 74 1012.9
20260508101008 55 152 3.0 5.0 0.00 0.26 0.00 74 1012.9
20260508100509 55 215 4.0 6.0 0.00 0.26 0.00 75 1012.9
20260508100008 55 148 5.0 8.0 0.00 0.26 0.00 75 1012.8
20260508095508 55 130 3.0 7.0 0.00 0.26 0.00 75 1012.8
20260508095008 55 93 3.0 5.0 0.00 0.26 0.00 76 1012.8
20260508094508 54 109 3.0 7.0 0.00 0.26 0.00 75 1012.7
20260508094008 55 138 3.0 5.0 0.00 0.26 0.00 75 1012.7
20260508093508 54 89 1.0 5.0 0.00 0.26 0.00 76 1012.7
20260508093008 54 133 2.0 3.0 0.00 0.26 0.00 75 1012.9
20260508092508 54 109 0.0 0.0 0.00 0.26 0.00 76 1012.9
20260508092008 54 109 0.0 3.0 0.00 0.26 0.00 76 1012.8
20260508091508 54 148 1.0 3.0 0.00 0.26 0.00 78 1012.7
20260508090509 53 110 2.0 6.0 0.00 0.26 0.00 78 1012.8
20260508090008 53 115 4.0 8.0 0.00 0.26 0.00 77 1013.0
20260508085508 53 125 4.0 8.0 0.00 0.26 0.00 78 1012.9
20260508085008 53 100 3.0 8.0 0.00 0.26 0.00 78 1012.7
20260508084508 53 84 5.0 7.0 0.00 0.26 0.00 78 1012.7
20260508084008 52 101 5.0 8.0 0.00 0.26 0.00 78 1012.6
20260508083509 52 66 5.0 8.0 0.00 0.26 0.00 78 1012.5
20260508083008 53 85 6.0 9.0 0.00 0.26 0.00 77 1012.5
20260508082008 52 74 3.0 7.0 0.00 0.26 0.00 79 1012.6
20260508081008 52 82 5.0 7.0 0.00 0.26 0.00 81 1012.6
20260508080008 51 68 3.0 5.0 0.00 0.26 0.00 82 1012.7
20260508075508 51 66 3.0 6.0 0.00 0.26 0.00 82 1012.8
20260508075008 51 70 2.0 7.0 0.00 0.26 0.00 82 1012.8
20260508074008 50 45 1.0 3.0 0.00 0.26 0.00 85 1012.8
20260508073508 50 54 2.0 5.0 0.00 0.26 0.00 85 1012.7
20260508073008 49 72 3.0 6.0 0.00 0.26 0.00 85 1012.7
20260508072507 49 47 0.0 3.0 0.00 0.26 0.00 86 1012.7
20260508072007 49 44 1.0 3.0 0.00 0.26 0.00 86 1012.6
20260508071508 49 18 2.0 3.0 0.00 0.26 0.00 86 1012.5
20260508071008 49 50 1.0 6.0 0.00 0.26 0.00 86 1012.2
20260508070508 49 40 2.0 6.0 0.00 0.26 0.00 86 1012.2
20260508070008 49 52 3.0 5.0 0.00 0.26 0.00 85 1012.5
20260508065008 48 54 2.0 6.0 0.00 0.26 0.00 85 1012.4
20260508064008 48 56 2.0 5.0 0.00 0.26 0.00 86 1012.3
20260508063508 48 55 0.0 2.0 0.00 0.26 0.00 86 1012.4
20260508063008 48 45 0.0 3.0 0.00 0.26 0.00 86 1012.4
20260508062507 48 11 2.0 5.0 0.00 0.26 0.00 85 1012.3
20260508062007 48 46 4.0 9.0 0.00 0.26 0.00 85 1012.2
20260508061509 48 52 4.0 8.0 0.00 0.26 0.00 86 1012.3
20260508061008 48 53 4.0 8.0 0.00 0.26 0.00 87 1012.2
20260508060508 48 34 3.0 5.0 0.00 0.26 0.00 87 1012.2
20260508060007 48 17 3.0 5.0 0.00 0.26 0.00 87 1012.3
20260508055507 47 24 5.0 8.0 0.00 0.26 0.00 87 1012.2
20260508055007 47 25 4.0 7.0 0.00 0.26 0.00 87 1012.5
20260508054008 47 25 5.0 8.0 0.00 0.26 0.00 87 1012.4
20260508053508 47 9 4.0 7.0 0.00 0.26 0.00 88 1012.4
20260508053008 47 23 4.0 7.0 0.00 0.26 0.00 88 1012.3
20260508052508 47 24 5.0 8.0 0.00 0.26 0.00 88 1012.3
20260508052008 47 24 5.0 9.0 0.00 0.26 0.00 88 1012.2
20260508051508 47 26 5.0 7.0 0.00 0.26 0.00 88 1012.3
20260508051008 47 21 5.0 8.0 0.00 0.26 0.00 89 1012.3
20260508050508 46 22 3.0 7.0 0.00 0.26 0.00 89 1012.3
20260508050008 46 8 3.0 5.0 0.00 0.26 0.00 90 1012.4
20260508045508 46 17 3.0 7.0 0.00 0.26 0.00 90 1012.4
20260508044508 45 12 3.0 5.0 0.00 0.26 0.00 90 1012.2
20260508044007 45 2 2.0 3.0 0.00 0.26 0.00 90 1012.2
20260508043508 45 355 0.0 3.0 0.00 0.26 0.00 89 1012.2
20260508043008 45 358 3.0 5.0 0.00 0.26 0.00 89 1012.1
20260508042508 45 5 2.0 3.0 0.00 0.26 0.00 89 1012.1
20260508042008 46 22 3.0 5.0 0.00 0.26 0.00 89 1012.1
20260508041508 46 20 3.0 7.0 0.00 0.26 0.00 89 1012.1
20260508041007 46 13 3.0 5.0 0.00 0.26 0.00 89 1012.0
20260508040507 46 19 3.0 5.0 0.00 0.26 0.00 89 1011.9
20260508040008 46 20 3.0 6.0 0.00 0.26 0.00 89 1011.9
20260508035507 46 16 0.0 3.0 0.00 0.26 0.00 90 1011.8
20260508035007 46 14 0.0 3.0 0.00 0.26 0.00 90 1011.8
20260508034507 46 14 3.0 3.0 0.00 0.26 0.00 89 1011.9
20260508033507 46 2 3.0 5.0 0.00 0.26 0.00 89 1011.9
20260508033007 46 16 4.0 6.0 0.00 0.26 0.00 88 1011.9
20260508032507 46 358 3.0 3.0 0.00 0.26 0.00 88 1011.9
20260508032008 47 0 2.0 7.0 0.00 0.26 0.00 88 1011.9
20260508031008 47 22 5.0 8.0 0.00 0.26 0.00 88 1011.7
20260508030507 47 25 5.0 9.0 0.00 0.26 0.00 88 1011.7
20260508030008 47 15 5.0 8.0 0.00 0.26 0.00 88 1011.7
20260508025507 46 25 5.0 9.0 0.00 0.26 0.00 88 1011.7
20260508025008 47 13 5.0 9.0 0.00 0.26 0.00 88 1011.7
20260508024508 47 15 6.0 9.0 0.00 0.26 0.00 88 1011.7
20260508024007 47 21 6.0 10.0 0.00 0.26 0.00 88 1011.7
20260508023508 47 25 5.0 9.0 0.00 0.26 0.00 88 1011.8
20260508023008 47 25 7.0 10.0 0.00 0.26 0.00 88 1011.8
20260508022507 46 32 6.0 9.0 0.00 0.26 0.00 89 1011.9
20260508022008 46 26 5.0 9.0 0.00 0.26 0.00 89 1011.9
20260508021507 46 22 3.0 8.0 0.00 0.26 0.00 89 1012.0
20260508021008 46 19 4.0 8.0 0.00 0.26 0.00 89 1012.0
20260508020508 46 23 4.0 7.0 0.00 0.26 0.00 89 1012.1
20260508020008 46 24 4.0 8.0 0.00 0.26 0.00 89 1012.2
20260508015508 46 31 5.0 8.0 0.00 0.26 0.00 90 1012.2
20260508015007 46 25 3.0 5.0 0.00 0.26 0.00 90 1012.3
20260508014507 46 15 3.0 5.0 0.00 0.26 0.00 90 1012.3
20260508014008 46 6 3.0 5.0 0.00 0.26 0.00 89 1012.4
20260508013508 46 2 3.0 5.0 0.00 0.26 0.00 89 1012.4
20260508013009 46 5 2.0 3.0 0.00 0.26 0.00 89 1012.5
20260508012508 46 22 3.0 5.0 0.00 0.26 0.00 90 1012.4
20260508012007 46 28 3.0 5.0 0.00 0.26 0.00 90 1012.5
20260508011507 46 13 3.0 5.0 0.00 0.26 0.00 90 1012.7
20260508011008 46 20 3.0 3.0 0.00 0.26 0.00 90 1012.8
20260508005519 46 26 2.0 3.0 0.00 0.26 0.00 90 1012.9
20260508005019 46 26 2.0 5.0 0.00 0.26 0.00 90 1012.9
20260508004519 46 17 3.0 5.0 0.00 0.26 0.00 90 1013.0
20260508004018 46 17 2.0 5.0 0.00 0.26 0.00 90 1013.0
20260508003518 46 23 2.0 3.0 0.00 0.26 0.00 90 1013.2
20260508003018 46 17 3.0 3.0 0.00 0.26 0.00 90 1013.2
20260508002518 46 8 3.0 3.0 0.00 0.26 0.00 90 1013.2
20260508002018 46 15 2.0 3.0 0.00 0.26 0.00 90 1013.3
20260508001518 46 15 2.0 3.0 0.00 0.26 0.00 90 1013.3
20260508001018 46 13 2.0 3.0 0.00 0.26 0.00 90 1013.3
20260508000518 46 27 2.0 3.0 0.00 0.26 0.00 90 1013.3
20260508000018 46 27 2.0 3.0 0.00 0.26 0.00 90 1013.3
20260507235521 46 27 1.0 3.0 0.00 0.26 0.00 90 1013.2
20260507235018 46 26 2.0 5.0 0.00 0.26 0.00 90 1013.2
20260507234518 46 25 2.0 3.0 0.00 0.26 0.00 90 1013.3
20260507234018 46 25 3.0 3.0 0.00 0.26 0.00 89 1013.4
20260507233519 46 25 2.0 3.0 0.00 0.26 0.00 89 1013.4
20260507232507 46 25 2.0 3.0 0.00 0.26 0.00 89 1013.5
20260507232007 46 13 3.0 5.0 0.00 0.26 0.00 89 1013.4
20260507231518 46 29 4.0 5.0 0.00 0.26 0.00 88 1013.4
20260507231018 47 29 3.0 3.0 0.00 0.26 0.00 87 1013.4
20260507230018 48 29 0.0 0.0 0.00 0.26 0.00 88 1013.4
20260507225518 48 29 0.0 0.0 0.00 0.26 0.00 88 1013.4
20260507225018 47 29 0.0 0.0 0.00 0.26 0.00 89 1013.5
20260507224518 47 29 0.0 0.0 0.00 0.26 0.00 88 1013.5
20260507224018 48 29 0.0 0.0 0.00 0.26 0.00 88 1013.6
20260507223007 48 29 0.0 0.0 0.00 0.26 0.00 88 1013.6
20260507222518 48 29 0.0 0.0 0.00 0.26 0.00 88 1013.6
20260507222018 48 29 0.0 0.0 0.00 0.26 0.00 88 1013.7
20260507221518 48 29 0.0 0.0 0.00 0.26 0.00 88 1013.5
20260507221018 48 29 0.0 0.0 0.00 0.26 0.00 88 1013.6
20260507220519 48 29 0.0 0.0 0.00 0.26 0.00 88 1013.6
20260507220019 48 29 0.0 0.0 0.00 0.26 0.00 88 1013.6
20260507215518 48 29 0.0 0.0 0.00 0.26 0.26 88 1013.6
20260507215018 48 29 0.0 0.0 0.00 0.26 0.26 89 1013.6
20260507214507 48 29 0.0 0.0 0.00 0.26 0.26 88 1013.6
20260507214018 48 29 0.0 0.0 0.00 0.26 0.26 88 1013.4
20260507213518 48 29 0.0 0.0 0.00 0.26 0.26 88 1013.4
20260507212518 49 0 0.0 0.0 0.00 0.26 0.26 88 1013.4
20260507212018 49 0 0.0 0.0 0.00 0.26 0.26 88 1013.3
20260507211519 48 0 0.0 0.0 0.00 0.26 0.26 87 1013.3
20260507210519 49 0 0.0 0.0 0.00 0.26 0.26 85 1013.3
20260507210018 49 0 0.0 0.0 0.00 0.26 0.26 85 1013.2
20260507205517 49 0 0.0 0.0 0.00 0.26 0.26 85 1012.9
20260507205007 49 0 0.0 0.0 0.00 0.26 0.26 85 1012.8
20260507204518 49 0 0.0 0.0 0.00 0.26 0.26 85 1012.7
20260507204007 49 349 0.0 0.0 0.00 0.26 0.26 83 1012.6
20260507203518 50 349 0.0 0.0 0.00 0.26 0.26 82 1012.5
20260507203018 51 349 0.0 0.0 0.00 0.26 0.26 81 1012.5
20260507202518 52 105 0.0 0.0 0.00 0.26 0.26 83 1012.3
20260507201518 52 175 2.0 5.0 0.00 0.26 0.26 84 1012.2
20260507201018 51 69 2.0 3.0 0.00 0.26 0.26 84 1012.2
20260507200519 51 5 0.0 0.0 0.00 0.26 0.26 83 1012.3
20260507195507 52 5 0.0 0.0 0.00 0.26 0.26 81 1012.1
20260507195018 52 5 0.0 0.0 0.00 0.26 0.26 80 1012.0
20260507194018 52 5 0.0 0.0 0.00 0.26 0.26 82 1011.9
20260507193018 52 350 0.0 0.0 0.00 0.26 0.26 80 1011.6
20260507192506 52 350 0.0 3.0 0.00 0.26 0.26 81 1011.6
20260507192018 52 353 3.0 5.0 0.00 0.26 0.26 82 1011.4
20260507191018 52 341 3.0 5.0 0.00 0.26 0.26 80 1011.2
20260507190518 53 340 4.0 5.0 0.00 0.26 0.26 80 1011.2
20260507190008 53 340 5.0 5.0 0.00 0.26 0.26 79 1011.0
20260507185518 54 341 3.0 5.0 0.00 0.26 0.26 78 1011.1
20260507184519 55 357 3.0 5.0 0.00 0.26 0.26 77 1010.8
20260507183018 56 3 3.0 3.0 0.00 0.26 0.26 73 1010.7
20260507182507 56 5 2.0 3.0 0.00 0.26 0.26 74 1010.7
20260507182018 56 5 2.0 5.0 0.00 0.26 0.26 72 1010.6
20260507181518 57 355 3.0 5.0 0.00 0.26 0.26 72 1010.5
20260507181017 57 331 2.0 3.0 0.00 0.26 0.26 72 1010.5
20260507180517 57 317 3.0 3.0 0.00 0.26 0.26 69 1010.6
20260507180018 57 317 3.0 5.0 0.00 0.26 0.26 69 1010.7
20260507175518 57 317 3.0 7.0 0.00 0.26 0.26 70 1010.7
20260507175018 56 304 2.0 8.0 0.00 0.26 0.26 70 1010.7
20260507174518 56 316 7.0 12.0 0.00 0.26 0.26 72 1010.7
20260507174018 56 314 7.0 12.0 0.00 0.26 0.26 71 1010.7
20260507173518 56 308 6.0 12.0 0.00 0.26 0.26 71 1010.6
20260507173018 56 301 9.0 12.0 0.00 0.26 0.26 72 1010.6
20260507172517 55 320 5.0 8.0 0.00 0.26 0.26 72 1010.4
20260507172017 54 286 7.0 12.0 0.00 0.26 0.26 76 1010.3
20260507171517 54 314 5.0 12.0 0.00 0.26 0.26 76 1010.3
20260507171018 53 135 1.0 9.0 0.00 0.26 0.26 75 1010.1
20260507165517 53 89 4.0 12.0 0.01 0.26 0.26 76 1010.3
20260507164517 53 98 5.0 9.0 0.02 0.26 0.26 75 1010.3
20260507164017 52 96 6.0 10.0 0.02 0.26 0.26 77 1010.5
20260507163517 52 128 5.0 13.0 0.05 0.26 0.26 78 1010.5
20260507163018 52 99 7.0 12.0 0.06 0.26 0.26 79 1010.5
20260507162517 52 96 6.0 10.0 0.06 0.26 0.26 80 1010.7
20260507162017 52 102 5.0 9.0 0.06 0.26 0.26 82 1010.7
20260507161518 52 104 5.0 10.0 0.07 0.26 0.26 82 1010.8
20260507161017 52 120 5.0 8.0 0.07 0.26 0.26 82 1010.8
20260507160518 52 93 5.0 8.0 0.07 0.26 0.26 84 1010.9
20260507160018 52 106 3.0 7.0 0.07 0.26 0.26 82 1011.2
20260507155517 51 136 2.0 3.0 0.06 0.25 0.25 83 1011.3
20260507155018 51 292 4.0 8.0 0.06 0.25 0.25 83 1011.4
20260507154518 51 307 6.0 9.0 0.06 0.24 0.24 83 1011.3